Tracking 19717 objects as of 25-Jun-2019
HD Live streaming from Space Station
objects crossing your sky now

SL-24 R/B

Track SL-24 R/B now!
10-day predictions


NORAD ID: 33397
Int'l Code: 2008-049B
Perigee: 682.7 km
Apogee: 1,177.6 km
Inclination: 98.8 °
Period: 103.5 minutes
Semi major axis: 7301 km
RCS: 5.3066 m2 (large)
Launch date: October 1, 2008
Source: Commonwealth of Independent States (former USSR) (CIS)
Launch site: Orenburg, Russia (OREN)

Note: This is a ROCKET BODY
aabbcc
Your satellite tracking list
Your tracking list is empty




NASA's NSSDC Master Catalog

Two Line Element Set (TLE):
1 33397U 08049B   19175.63918510 +.00000058 +00000-0 +50459-4 0  9992
2 33397 098.7764 069.4716 0338873 205.4006 241.2327 13.91607681544916
Source of the keplerian elements: AFSPC